sat.trackr.live / text

‹ back to catalog

STARLINK-4383

NORAD 53473 · 2022-099J

PAYLOAD ACTIVE UNKNOWN

§ Identity

Operator
Country
US
Launch date
2022-08-12
Launch site
AFWTR
Launch vehicle
Mass (kg)
RCS (m²)

Purposes: comms

External: N2YO · Heavens-Above · Gunter

§ Orbital elements

Epoch: 2026-05-25T06:00:02.000160Z

Period
94.41 min
Inclination
97.5999°
Eccentricity
0.0001656
Mean motion
15.25278686 rev/d
Perigee alt
488.8 km
Apogee alt
491.1 km
Semi-major
6,868.1 km
B*
4.7993e-3
RAAN
267.1947°
Arg perigee
71.3994°
Mean anomaly
181.8882°
Rev number
573

§ Raw data

STARLINK-43831 53473U 22099J   26145.25002315  .00122588  00000+0  47993-2 0  99992 53473  97.5999 267.1947 0001656  71.3994 181.8882 15.25278686  5730

JSON: /api/v1/satellites/53473 · /tle

For live sub-satellite position, see the globe view (requires WebGL).

§ Visibility from observer

Set your observer location to see the next 7 days of passes ≥ 10°. The values pass through the URL so the page stays shareable.

No JS? Fill the form by hand. The geolocation button needs JavaScript.